Location: LDNL
(36.4545°S, 141.6685°E)
Time: 14:44:43
(UTC+11:00)

Courier 1B Rocket - Pass Details

Date: 03 February 2023
Orbit: 920 x 1202 km, 28.2° (Epoch: 25 March)

Event Time Altitude Azimuth Distance (km) Brightness Sun altitude
Rises 04:21:38 0° 330° (NNW) 3,991 - -25.5°
Reaches altitude 10° 04:25:27 10° 348° (NNW) 3,075 - -25.0°
Exits shadow 04:29:12 17° 18° (NNE) 2,585 6.9 -24.5°
Maximum altitude 04:30:17 18° 28° (NNE) 2,562 7.0 -24.3°
Drops below altitude 10° 04:35:11 10° 67° (ENE) 3,138 7.9 -23.6°
Sets 04:39:07 0° 84° (E) 4,106 8.8 -23.1°
